Wind_Speed
12 14 15 16 14 12 8 13 11 6 8 15 15 12 12 13 14 15 14 12 11 13 13 13 13 14 14 15 15 15 15 14 14 14 13 13 12 12 11 10 9 8 7 7 6 6 6 5 5
14 16 17 17 16 14 12 17 13 8 13 15 15 12 12 15 13 13 13 13 13 14 14 15 15 15 16 16 15 16 16 15 14 14 14 13 13 12 10 10 9 8 7 6 6 6 5 5 5
17 18 19 18 17 16 16 20 16 9 12 15 15 13 14 14 13 12 12 12 13 15 15 16 16 16 17 17 17 16 16 16 15 14 14 13 12 11 10 9 8 8 7 6 6 5 5 5 5
21 21 21 19 17 15 17 23 16 9 8 11 14 15 16 15 14 13 14 13 13 14 16 16 17 17 17 18 18 17 16 16 15 14 13 13 12 11 10 9 8 8 7 6 5 5 5 5 5
25 23 22 20 18 17 19 22 18 10 8 11 15 17 18 16 14 14 14 14 13 14 15 16 16 17 17 17 17 17 17 16 15 14 13 13 12 11 10 9 8 8 7 6 6 5 5 5 6
28 27 25 21 19 19 20 22 20 14 12 13 16 19 21 17 15 14 13 13 13 13 14 15 16 17 17 17 17 17 17 16 15 14 13 13 12 11 10 9 9 8 7 6 6 6 6 6 6
30 30 27 24 22 20 21 22 22 21 18 18 19 19 22 19 14 14 14 13 13 12 13 14 15 16 17 17 17 17 17 16 15 14 14 13 12 11 10 10 9 8 8 7 7 7 7 7 7
32 32 30 27 24 21 21 26 25 25 22 23 23 22 24 20 13 13 14 14 13 12 12 13 15 16 16 17 17 17 16 15 15 14 14 13 12 11 10 10 9 9 9 8 8 8 8 8 9
34 35 32 28 25 22 22 25 27 26 25 25 25 26 27 20 15 14 14 14 13 12 12 12 13 15 16 16 16 16 15 15 14 14 13 13 12 11 11 11 10 10 10 10 10 10 10 10 10
34 35 32 30 27 24 23 24 27 25 23 23 24 27 26 22 17 17 16 15 14 13 12 12 13 14 15 16 16 16 15 15 14 14 13 13 12 12 12 11 11 11 11 12 12 12 12 12 12
32 34 33 33 30 29 27 26 26 25 24 22 22 26 27 22 19 19 18 16 15 14 13 12 12 14 15 15 15 15 15 14 14 13 13 13 12 12 12 12 12 13 13 13 14 14 14 15 15
30 32 34 35 35 34 32 31 28 25 24 22 24 27 29 24 21 21 20 18 15 15 14 13 13 14 14 15 15 14 14 14 14 14 14 14 13 13 13 13 14 14 14 15 16 16 17 17 18
29 30 33 36 38 36 36 35 32 29 27 27 28 30 29 26 24 22 21 19 15 15 15 13 13 13 13 14 14 14 14 15 15 15 15 14 15 14 15 15 16 16 16 17 18 18 19 20 21
27 30 32 34 36 35 35 34 33 31 28 29 29 29 26 24 24 23 23 20 16 15 15 15 14 14 14 14 15 15 15 15 15 15 15 15 15 15 16 17 18 19 19 20 21 21 22 23 23
26 29 31 31 33 33 33 34 32 30 30 30 30 30 28 27 26 24 24 21 18 16 16 15 15 15 15 15 16 16 16 16 16 16 16 17 17 17 18 19 20 21 22 23 24 25 25 26 27
23 24 26 26 28 30 31 30 29 29 30 29 29 30 30 29 26 26 25 20 19 17 16 16 16 15 16 16 16 17 17 17 17 18 18 19 19 20 21 22 23 24 25 26 27 27 27 27 28
17 17 18 18 21 25 27 26 25 26 28 29 30 29 30 31 27 27 25 21 20 18 17 18 18 17 17 17 17 18 18 19 20 20 20 22 22 23 25 25 26 27 28 28 28 28 28 28 29
9 10 11 12 18 22 23 24 24 26 28 29 29 30 32 30 28 27 26 22 21 20 18 19 19 18 18 19 19 19 20 21 22 23 24 24 26 27 28 28 28 29 29 30 29 28 29 29 29
15 15 14 15 18 21 22 24 26 28 29 30 30 29 27 26 29 28 25 23 22 21 20 19 19 20 19 20 20 21 22 24 25 26 27 27 28 29 28 29 30 31 31 29 28 29 30 30 29
18 17 16 17 20 21 22 25 27 30 32 31 29 29 28 27 29 28 27 24 23 22 21 20 20 21 21 22 22 23 24 26 27 28 29 29 30 31 32 32 33 33 33 32 30 30 29 29 30
19 18 19 19 20 22 24 26 29 29 31 29 29 27 27 28 28 27 25 23 23 22 22 21 22 23 24 25 25 25 26 27 29 30 30 31 31 31 32 33 33 32 31 30 30 31 31 31 32
17 17 19 20 20 19 21 23 27 30 29 30 31 31 29 28 27 27 25 25 25 25 25 25 26 26 26 27 26 27 28 29 31 32 33 33 33 34 33 33 32 31 31 31 31 32 32 33 34
15 16 18 18 19 20 20 21 23 26 29 29 30 29 29 28 28 27 26 26 27 28 27 27 28 28 28 28 29 29 30 31 31 32 33 32 33 32 31 31 32 32 31 32 33 34 35 35 36
15 14 15 17 18 21 21 21 24 27 27 28 29 30 29 29 29 29 27 27 28 28 28 28 28 29 30 30 31 32 32 32 33 34 34 33 33 33 32 32 31 32 32 34 35 36 37 38 39
15 14 13 14 17 18 19 21 28 28 27 26 27 28 27 27 28 28 28 28 27 27 27 28 29 31 31 32 33 35 35 36 36 35 36 35 34 33 33 34 35 35 35 37 38 39 39 40 40
14 15 15 13 14 16 19 26 31 28 26 24 25 27 27 27 27 27 27 27 27 27 28 29 30 31 32 34 35 36 37 36 36 36 36 36 36 36 36 36 36 37 38 39 40 42 42 42 43
12 15 16 17 16 16 20 26 28 28 25 23 22 23 25 27 28 27 27 27 28 28 28 29 31 33 33 34 35 36 35 36 37 37 37 38 38 38 38 38 38 39 41 42 43 45 45 44 45
12 13 16 18 16 17 19 21 24 22 22 23 23 23 24 25 26 26 27 27 28 29 30 31 32 34 35 35 35 35 36 37 38 39 39 39 39 39 39 40 41 42 43 44 45 46 46 46 46
12 14 16 16 16 16 18 20 22 22 20 20 21 21 23 24 26 27 28 29 30 31 32 33 34 35 35 36 36 37 39 40 39 39 40 40 39 40 41 43 44 45 45 45 46 45 45 46 47
11 14 15 17 17 17 19 22 21 21 17 18 20 21 22 24 26 27 28 28 29 30 32 33 35 35 36 37 38 39 40 40 39 39 40 40 41 42 43 44 44 45 45 45 45 45 46 47 46
Wind_Direction
242 235 230 228 222 210 218 262 255 250 252 262 258 255 254 255 255 253 261 265 262 255 250 244 239 236 234 231 227 228 231 235 240 246 252 256 258 259 260 263 265 267 267 268 270 274 277 278 283
241 235 231 227 220 207 227 247 242 228 252 265 264 257 258 265 273 273 274 273 271 264 256 250 244 240 238 235 231 230 233 236 241 247 254 258 259 258 260 263 264 265 266 269 273 277 280 283 287
238 235 232 230 224 212 233 242 228 214 251 258 261 258 261 268 277 276 278 279 277 267 261 253 248 245 241 237 233 232 234 237 242 248 254 257 257 258 259 260 260 260 263 268 274 279 283 287 294
237 236 235 234 229 217 241 259 241 212 231 254 257 259 264 266 271 275 274 276 279 271 264 257 250 247 243 238 236 235 236 239 243 249 253 255 256 257 257 256 257 259 262 267 272 277 283 291 299
237 237 237 237 230 219 234 257 259 231 227 255 260 259 261 259 264 272 275 276 278 276 270 262 252 246 243 240 238 236 237 239 243 249 252 254 256 255 254 253 255 258 262 264 269 273 280 289 299
238 238 238 238 232 223 230 249 256 253 252 252 256 259 262 263 261 266 273 277 280 278 272 263 254 248 244 241 239 237 238 239 243 247 249 252 253 253 250 251 255 259 261 264 269 273 282 291 299
239 238 238 236 233 227 232 244 256 251 246 251 250 251 259 258 254 262 269 279 287 282 274 263 254 247 242 239 238 237 238 241 244 245 248 250 250 250 249 252 255 258 261 264 268 275 283 290 296
239 238 236 235 234 229 232 240 241 249 245 246 253 254 256 250 250 264 273 282 288 285 276 266 256 248 242 238 237 237 238 240 242 244 247 248 248 247 249 252 256 259 261 264 270 277 285 293 297
237 238 236 235 234 232 234 246 245 239 240 245 251 254 258 256 261 265 273 282 289 288 279 270 259 251 245 240 238 237 237 238 240 242 244 247 247 248 251 253 255 259 263 267 272 279 285 291 295
238 238 236 234 229 229 233 243 250 243 238 243 249 255 259 261 261 263 269 279 286 290 283 273 261 253 248 243 239 238 237 238 240 242 244 247 248 249 252 252 255 259 263 267 273 279 283 289 293
240 238 234 231 226 226 228 233 243 245 246 242 244 251 255 251 251 256 264 272 280 288 287 277 263 256 250 245 241 238 238 239 241 242 245 246 247 249 254 256 258 262 268 272 275 279 283 286 288
241 238 234 231 228 227 228 228 233 238 242 238 239 245 247 243 247 252 258 262 270 282 286 280 268 261 254 247 243 241 240 241 241 243 246 249 251 254 258 260 265 269 273 276 278 281 284 287 288
242 238 235 233 232 232 233 231 232 235 240 237 237 243 242 242 243 247 254 259 266 276 283 282 271 265 257 248 244 245 244 243 243 247 250 255 258 260 263 266 270 274 276 279 281 283 286 288 289
242 239 237 235 234 235 236 236 236 235 237 239 239 243 245 241 244 244 249 254 259 267 276 280 276 269 259 252 249 248 248 248 250 253 256 260 263 266 269 272 275 279 280 280 280 283 285 286 288
245 242 238 237 236 235 236 236 237 237 237 239 241 240 242 244 246 243 245 250 253 263 268 272 272 269 264 256 251 251 252 252 253 256 261 263 266 270 273 275 278 281 281 282 283 286 284 284 286
249 245 241 239 238 236 236 236 236 236 236 237 240 238 237 238 241 245 245 241 248 256 263 267 266 265 264 258 255 255 257 257 257 259 263 268 270 271 274 276 278 280 281 281 284 286 285 285 285
249 248 243 238 241 238 234 231 230 231 232 234 236 234 235 238 240 243 240 241 247 253 262 264 265 264 264 262 261 261 261 261 261 263 266 269 272 273 274 276 280 280 279 280 282 285 286 288 289
238 250 246 233 242 239 230 220 220 223 228 232 233 231 231 235 240 240 243 242 249 252 257 261 265 266 264 263 263 263 265 265 266 266 266 268 272 275 276 279 282 283 281 280 282 284 288 290 291
219 217 215 217 228 232 226 219 219 221 224 228 231 231 232 234 239 241 243 239 245 248 252 258 263 266 267 267 267 269 268 269 268 266 266 269 272 275 277 279 283 284 283 284 285 288 289 291 293
222 216 212 211 220 221 222 224 224 227 228 229 230 232 230 231 235 238 239 241 245 248 253 256 264 269 269 271 271 272 273 275 275 274 275 274 274 276 276 277 278 283 285 286 290 291 293 294 294
225 219 217 216 224 226 224 226 227 230 230 230 234 232 228 232 237 240 239 241 249 252 257 261 265 268 270 271 272 275 277 279 280 278 278 278 279 279 278 281 283 286 288 289 290 292 295 295 294
228 223 221 220 224 228 232 233 234 237 236 234 235 237 236 234 239 242 243 247 250 252 256 261 264 265 269 272 271 275 278 279 282 282 282 282 284 285 287 287 288 291 289 290 290 293 295 293 293
225 221 225 225 222 219 227 233 239 241 239 236 235 237 237 238 241 243 245 246 248 252 256 259 262 265 268 272 274 277 280 280 282 286 288 289 288 290 293 294 293 291 292 292 293 294 295 294 293
225 220 229 231 227 229 227 230 243 243 240 238 237 237 237 238 240 244 246 247 250 254 258 260 261 264 268 272 277 279 282 285 288 293 294 296 293 292 293 293 295 295 295 294 294 294 294 295 295
219 212 220 233 232 236 234 238 243 243 246 240 238 235 236 238 242 244 245 248 252 256 258 260 263 265 269 273 275 278 282 285 289 291 293 296 295 293 293 293 297 296 296 296 296 295 295 295 295
218 206 205 225 236 237 233 237 244 247 250 250 247 240 238 241 243 244 247 249 252 256 258 260 263 266 268 272 274 278 281 284 289 290 291 293 293 292 293 294 295 294 295 295 295 295 295 294 294
222 208 206 227 235 233 232 234 243 252 254 252 252 248 242 242 243 245 248 250 252 255 258 260 262 266 268 271 275 278 280 284 286 288 290 291 291 292 292 292 291 291 293 293 292 293 293 292 293
208 214 218 228 241 249 249 247 250 254 256 255 253 253 248 246 245 246 249 251 253 256 259 262 263 266 268 271 274 278 280 283 285 287 288 288 288 289 291 291 292 291 290 291 291 291 292 293 293
208 208 217 227 242 255 263 254 253 242 242 246 248 247 246 246 246 247 249 252 255 258 260 262 265 267 268 270 274 277 280 282 284 285 286 287 286 287 287 287 289 289 289 291 292 292 293 293 293
216 213 222 230 239 248 264 275 263 247 239 241 244 245 245 246 247 248 251 255 257 259 261 264 266 267 269 271 274 276 278 279 281 282 283 283 283 285 286 287 288 289 290 290 290 292 294 293 294
Height
5884 5885 5886 5888 5891 5893 5894 5894 5893 5892 5892 5894 5895 5895 5894 5893 5893 5895 5892 5892 5894 5894 5895 5895 5896 5896 5897 5897 5898 5898 5899 5900 5901 5902 5903 5903 5904 5904 5904 5904 5904 5904 5903 5903 5903 5903 5903 5902 5902
5882 5883 5884 5886 5888 5889 5892 5891 5890 5889 5892 5893 5893 5894 5892 5892 5891 5891 5891 5892 5893 5892 5893 5894 5894 5895 5895 5895 5896 5897 5898 5898 5899 5900 5901 5902 5902 5903 5903 5903 5903 5902 5902 5902 5902 5902 5902 5902 5902
5879 5880 5881 5883 5885 5886 5888 5887 5887 5887 5890 5891 5892 5892 5891 5891 5890 5890 5891 5891 5892 5892 5892 5892 5892 5893 5893 5894 5894 5895 5896 5897 5898 5899 5900 5901 5901 5901 5902 5902 5901 5901 5901 5901 5901 5901 5901 5901 5901
5875 5877 5879 5881 5883 5885 5885 5883 5883 5884 5888 5889 5890 5890 5889 5890 5890 5890 5889 5890 5890 5890 5890 5890 5890 5891 5891 5892 5892 5893 5894 5895 5896 5897 5898 5899 5900 5900 5900 5900 5900 5900 5900 5900 5900 5900 5900 5900 5900
5871 5873 5875 5877 5880 5882 5883 5882 5882 5882 5884 5886 5888 5887 5886 5886 5888 5888 5888 5888 5888 5888 5888 5888 5888 5888 5889 5890 5890 5891 5892 5893 5894 5895 5897 5897 5898 5899 5899 5899 5899 5899 5899 5899 5899 5899 5899 5899 5899
5867 5869 5872 5874 5877 5879 5881 5879 5880 5880 5883 5885 5886 5885 5883 5884 5885 5885 5886 5886 5886 5886 5886 5885 5886 5886 5887 5888 5888 5889 5890 5891 5893 5894 5895 5896 5897 5897 5898 5898 5898 5898 5898 5898 5898 5898 5898 5898 5898
5862 5864 5867 5870 5872 5876 5879 5878 5878 5879 5881 5883 5882 5881 5880 5880 5881 5883 5883 5883 5884 5884 5883 5883 5883 5884 5885 5885 5886 5888 5889 5890 5891 5892 5893 5894 5895 5896 5896 5897 5897 5897 5897 5897 5897 5897 5897 5897 5897
5855 5859 5861 5865 5868 5872 5875 5876 5876 5877 5879 5879 5879 5878 5875 5875 5878 5880 5880 5881 5881 5881 5881 5881 5882 5882 5883 5883 5884 5886 5887 5888 5889 5891 5892 5893 5894 5894 5895 5895 5895 5895 5895 5896 5896 5896 5896 5896 5896
5849 5852 5856 5861 5864 5868 5871 5871 5871 5871 5875 5875 5875 5874 5872 5872 5876 5877 5878 5878 5879 5879 5879 5879 5879 5880 5881 5881 5882 5883 5885 5886 5888 5889 5890 5891 5892 5893 5893 5894 5894 5894 5894 5894 5894 5894 5894 5894 5894
5842 5846 5852 5855 5858 5862 5865 5866 5866 5865 5868 5871 5871 5870 5868 5870 5873 5875 5875 5876 5876 5876 5877 5877 5877 5878 5879 5880 5881 5882 5883 5885 5886 5887 5888 5889 5890 5891 5892 5892 5892 5892 5892 5893 5893 5892 5892 5892 5892
5836 5840 5845 5847 5851 5854 5857 5860 5861 5862 5864 5867 5868 5867 5865 5866 5869 5871 5872 5873 5873 5873 5874 5874 5875 5875 5877 5878 5879 5880 5881 5883 5884 5885 5886 5887 5889 5889 5890 5890 5891 5891 5891 5891 5891 5891 5890 5890 5890
5830 5833 5836 5840 5843 5846 5850 5853 5856 5858 5861 5863 5865 5864 5862 5863 5865 5868 5869 5869 5870 5871 5871 5872 5873 5873 5875 5876 5877 5878 5880 5881 5882 5883 5884 5886 5887 5887 5888 5889 5889 5889 5889 5889 5889 5888 5888 5888 5887
5823 5826 5829 5833 5836 5840 5844 5847 5851 5854 5857 5858 5859 5859 5858 5859 5861 5865 5866 5866 5867 5868 5868 5869 5871 5871 5873 5874 5875 5877 5878 5879 5880 5881 5882 5884 5885 5885 5886 5886 5886 5886 5886 5886 5886 5885 5885 5884 5884
5817 5820 5823 5826 5830 5834 5838 5842 5845 5849 5852 5853 5855 5854 5853 5854 5858 5860 5861 5862 5864 5866 5866 5867 5868 5869 5871 5872 5873 5874 5875 5877 5878 5879 5880 5881 5882 5882 5883 5883 5883 5883 5883 5883 5882 5881 5881 5880 5879
5811 5814 5817 5821 5825 5828 5832 5836 5840 5844 5847 5849 5850 5851 5852 5851 5853 5854 5855 5858 5861 5863 5863 5864 5866 5867 5868 5869 5870 5871 5873 5874 5875 5876 5876 5877 5879 5879 5880 5880 5880 5879 5879 5878 5878 5877 5876 5876 5875
5807 5809 5813 5817 5819 5823 5828 5831 5835 5838 5841 5843 5845 5846 5847 5847 5849 5850 5850 5852 5856 5859 5861 5862 5863 5865 5865 5866 5867 5869 5870 5871 5872 5873 5873 5874 5875 5875 5875 5875 5875 5875 5874 5874 5873 5872 5871 5870 5869
5804 5806 5810 5814 5815 5818 5822 5826 5829 5832 5835 5838 5839 5840 5843 5843 5845 5845 5845 5845 5851 5855 5858 5859 5860 5861 5862 5863 5864 5865 5866 5867 5868 5869 5870 5870 5871 5871 5871 5871 5871 5870 5869 5868 5867 5866 5865 5864 5863
5803 5806 5809 5812 5814 5815 5818 5821 5824 5826 5830 5833 5833 5834 5835 5837 5840 5840 5842 5843 5848 5852 5854 5856 5857 5857 5859 5859 5860 5861 5862 5863 5864 5864 5865 5866 5866 5866 5866 5866 5865 5864 5863 5862 5861 5860 5859 5858 5857
5798 5802 5805 5810 5811 5812 5814 5816 5819 5821 5825 5826 5826 5825 5828 5833 5836 5837 5839 5840 5844 5848 5850 5851 5852 5853 5855 5855 5856 5857 5858 5858 5859 5859 5859 5860 5860 5860 5860 5860 5859 5858 5857 5856 5855 5854 5853 5852 5850
5794 5798 5801 5805 5806 5808 5810 5812 5814 5815 5818 5820 5823 5823 5825 5828 5831 5833 5834 5837 5840 5843 5845 5847 5848 5849 5850 5851 5852 5852 5853 5853 5854 5854 5853 5853 5853 5853 5853 5853 5852 5851 5851 5850 5849 5847 5846 5845 5844
5790 5794 5796 5800 5802 5804 5806 5808 5809 5810 5813 5816 5818 5818 5820 5824 5825 5827 5828 5832 5837 5839 5841 5843 5844 5845 5846 5847 5847 5847 5848 5848 5848 5848 5848 5847 5846 5845 5845 5845 5845 5844 5843 5843 5842 5841 5839 5838 5837
5786 5790 5792 5794 5797 5800 5803 5804 5806 5807 5809 5813 5814 5816 5817 5820 5822 5824 5827 5830 5833 5834 5837 5838 5839 5840 5841 5842 5842 5843 5843 5842 5842 5842 5841 5840 5840 5839 5839 5839 5838 5837 5836 5836 5835 5833 5832 5831 5829
5783 5786 5788 5790 5793 5796 5799 5801 5802 5802 5804 5807 5809 5811 5814 5817 5819 5821 5824 5826 5828 5829 5831 5833 5834 5835 5836 5837 5837 5837 5837 5836 5836 5836 5835 5834 5834 5833 5833 5832 5831 5830 5829 5828 5827 5826 5824 5822 5821
5780 5782 5785 5787 5790 5792 5795 5797 5797 5797 5799 5802 5804 5806 5810 5813 5815 5817 5820 5822 5823 5824 5826 5827 5829 5830 5831 5831 5832 5831 5830 5829 5829 5829 5828 5828 5827 5826 5825 5825 5824 5823 5821 5820 5819 5817 5815 5813 5811
5777 5781 5784 5786 5788 5790 5793 5793 5791 5791 5795 5796 5799 5801 5804 5808 5810 5812 5815 5817 5818 5819 5820 5822 5823 5824 5825 5826 5826 5826 5825 5824 5823 5823 5822 5821 5820 5818 5817 5817 5815 5814 5813 5811 5810 5808 5806 5804 5801
5774 5778 5782 5785 5787 5789 5790 5789 5787 5788 5790 5792 5795 5798 5800 5803 5805 5807 5809 5811 5813 5814 5815 5816 5817 5818 5819 5820 5820 5819 5819 5818 5817 5816 5815 5814 5813 5811 5810 5809 5807 5806 5804 5802 5800 5799 5796 5794 5791
5773 5775 5779 5781 5781 5783 5784 5783 5783 5784 5786 5788 5791 5793 5796 5798 5800 5802 5804 5805 5807 5808 5809 5810 5811 5812 5812 5813 5813 5813 5812 5811 5810 5809 5808 5806 5805 5803 5802 5801 5799 5797 5795 5793 5791 5789 5786 5784 5781
5771 5774 5776 5778 5778 5779 5779 5778 5778 5779 5782 5784 5786 5789 5791 5793 5795 5797 5798 5800 5801 5802 5803 5804 5804 5805 5805 5806 5806 5805 5804 5803 5802 5801 5799 5798 5797 5795 5793 5792 5790 5788 5786 5784 5781 5779 5776 5773 5769
5769 5772 5773 5775 5776 5776 5775 5775 5772 5772 5776 5779 5781 5783 5785 5787 5789 5791 5792 5794 5795 5795 5796 5797 5797 5797 5797 5797 5797 5797 5796 5795 5794 5792 5790 5789 5787 5786 5784 5782 5780 5778 5776 5773 5771 5768 5765 5761 5758
5768 5770 5771 5773 5773 5773 5772 5772 5767 5766 5769 5773 5776 5778 5780 5781 5783 5785 5786 5787 5788 5788 5789 5789 5789 5789 5789 5788 5788 5788 5787 5786 5785 5783 5781 5780 5778 5777 5774 5772 5770 5768 5765 5762 5760 5757 5754 5750 5746